Location: Cabeza de los Veneras
(40.2000°N, 5.2000°W)
Time: 07:25:32
(UTC+00:00)

Cosmos 1727 Rocket - Visible Passes

Search period start: 13 July 2024 00:00
Search period end: 23 July 2024 00:00
Orbit: 962 x 995 km, 82.9° (Epoch: 12 July)

Date Brightness Start Highest point End Pass type
(mag) Time Alt. Az. Time Alt. Az. Time Alt. Az.
13 Jul 4.9 00:13:16 10° NNW 00:18:58 36° W 00:19:50 35° WSW visible
13 Jul 4.1 22:53:46 10° N 23:00:03 61° E 23:01:14 52° SE visible
14 Jul 5.7 00:40:33 10° NW 00:44:52 20° W 00:45:57 19° W visible
14 Jul 5.7 21:36:19 10° NNE 21:40:12 17° ENE 21:42:39 14° E visible
14 Jul 4.0 23:20:00 10° N 23:26:20 75° W 23:27:22 62° SSW visible
15 Jul 5.0 22:01:26 10° NNE 22:06:55 30° ENE 22:08:48 26° ESE visible
15 Jul 4.8 23:46:36 10° NNW 23:52:26 40° W 23:53:31 37° WSW visible
16 Jul 4.3 22:27:14 10° N 22:33:27 55° E 22:34:57 44° ESE visible
17 Jul 5.6 00:13:44 10° NW 00:18:22 22° W 00:19:41 20° W visible
17 Jul 5.8 21:10:07 10° NNE 21:13:31 15° ENE 21:16:24 11° E visible
17 Jul 3.9 22:53:25 10° N 22:59:46 83° W 23:01:08 58° S visible
18 Jul 6.3 00:42:36 10° WNW 00:44:06 11° WNW 00:45:35 10° W visible
18 Jul 5.2 21:35:01 10° NNE 21:40:17 27° ENE 21:42:36 22° ESE visible
18 Jul 4.7 23:19:57 10° NNW 23:25:53 45° W 23:27:19 39° WSW visible
19 Jul 4.4 22:00:43 10° N 22:06:50 49° ENE 22:08:47 37° SE visible
19 Jul 5.5 23:46:57 10° NNW 23:51:51 24° W 23:53:31 22° WSW visible
20 Jul 5.9 20:44:01 10° NE 20:46:49 13° ENE 20:49:35 10° E visible
20 Jul 3.9 22:26:50 10° N 22:33:11 89° E 22:35:00 50° S visible
21 Jul 6.2 00:15:10 10° NW 00:17:37 12° WNW 00:19:44 11° W visible
21 Jul 5.3 21:08:36 10° NNE 21:13:37 24° ENE 21:16:30 18° ESE visible
21 Jul 4.6 22:53:17 10° NNW 22:59:21 50° W 23:01:14 38° SW visible
22 Jul 4.5 21:34:12 10° N 21:40:13 44° ENE 21:42:45 30° SE visible
22 Jul 5.5 23:20:11 10° NNW 23:25:20 27° W 23:27:29 22° WSW visible
